Glasgow, KY

7:15 AM CST on February 21, 2017 (GMT -0600)
Glasgow Municipal

Weather History for KGLW - December, 2012

Change the Weather History Date:

Wednesday, December 5, 2012

  Actual Average Record
Temperature  
Mean Temperature 50 °F -  
Max Temperature 58 °F 50 °F 70 °F (1982)
Min Temperature 41 °F 30 °F 14 °F (1991)
Degree Days  
Heating Degree Days 16    
Moisture  
Dew Point 38 °F    
Average Humidity 65    
Maximum Humidity 100    
Minimum Humidity 37    
Precipitation  
Precipitation 0.00 in - - ()
Sea Level Pressure  
Sea Level Pressure 30.27 in    
Wind  
Wind Speed 3 mph (NE)    
Max Wind Speed 8 mph    
Max Gust Speed -    
Visibility 9 miles    
Events      
Averages and records for this station are not official NWS values.
T = Trace of Precipitation, MM = Missing Value Source: NWS Daily Summary

Daily Weather History Graph

Daily Weather History Graph

Search for Another Location

Airport or City:

Trip Planner

Search our weather history database for the weather conditions in past years. The results will help you decide how hot, cold, wet, or windy it might be!

Date:

Astronomy

Dec. 05, 2012 Rise Set
Actual Time 6:42 AM CST 4:26 PM CST
Civil Twilight 6:13 AM CST 4:55 PM CST
Nautical Twilight 5:41 AM CST 5:27 PM CST
Astronomical Twilight 5:09 AM CST 5:59 PM CST
Moon 11:08 PM CST (12/5) 11:12 AM CST (12/5)
Length of Visible Light 10h 41m
Length of Day
9h 44m
Waning Gibbous, 59% of the Moon is Illuminated
Dec 5
Waning Gibbous
Dec 6
Last Quarter
Dec 13
New
Dec 19
First Quarter
Dec 28
Full

Hourly Weather History & Observations

Time (CST) Temp. Windchill Dew Point Humidity Pressure Visibility Wind Dir Wind Speed Gust Speed Precip Events Conditions
12:15 AM 47.3 °F - 42.3 °F 83% 30.23 in 10.0 mi Calm Calm - N/A   Scattered Clouds
12:35 AM 46.9 °F - 42.3 °F 84% 30.25 in 10.0 mi North 4.6 mph - N/A   Scattered Clouds
12:55 AM 47.1 °F - 41.9 °F 82% 30.25 in 10.0 mi NE 3.5 mph - N/A   Mostly Cloudy
1:15 AM 47.3 °F - 41.5 °F 80% 30.26 in 10.0 mi North 3.5 mph - N/A   Overcast
1:55 AM 46.4 °F - 41.2 °F 82% 30.26 in 10.0 mi Calm Calm - N/A   Scattered Clouds
2:15 AM 46.0 °F - 41.2 °F 83% 30.27 in 10.0 mi Calm Calm - N/A   Scattered Clouds
2:35 AM 45.7 °F - 40.8 °F 83% 30.27 in 10.0 mi Calm Calm - N/A   Clear
2:55 AM 45.1 °F 43.7 °F 40.5 °F 84% 30.27 in 10.0 mi NNE 3.5 mph - N/A   Clear
3:15 AM 44.8 °F 43.3 °F 40.6 °F 85% 30.27 in 10.0 mi NNE 3.5 mph - N/A   Scattered Clouds
3:35 AM 44.4 °F 42.9 °F 40.8 °F 87% 30.27 in 10.0 mi NNE 3.5 mph - N/A   Scattered Clouds
3:55 AM 44.2 °F - 42.3 °F 93% 30.27 in 10.0 mi Calm Calm - N/A   Scattered Clouds
4:15 AM 43.2 °F - 42.6 °F 98% 30.28 in 10.0 mi Calm Calm - N/A   Clear
4:35 AM - - - N/A% 30.29 in 7.0 mi Calm Calm - N/A   Clear
4:55 AM - - - N/A% 30.29 in 10.0 mi Calm Calm - N/A   Scattered Clouds
5:15 AM - - - N/A% 30.30 in 7.0 mi Calm Calm - N/A   Mostly Cloudy
5:35 AM - - - N/A% 30.31 in 7.0 mi Calm Calm - N/A   Scattered Clouds
5:55 AM - - - N/A% 30.32 in 5.0 mi Calm Calm - N/A   Haze
6:15 AM - - - N/A% 30.32 in 3.0 mi Calm Calm - N/A   Clear
6:35 AM - - - N/A% 30.32 in 5.0 mi NNE 3.5 mph - N/A   Haze
6:55 AM - - - N/A% 30.32 in 4.0 mi NNE 3.5 mph - N/A   Haze
8:35 AM 46.2 °F - 46.2 °F 100% 30.34 in 10.0 mi Calm Calm - N/A   Clear
8:55 AM 47.1 °F - 46.8 °F 99% 30.34 in 10.0 mi Calm Calm - N/A   Clear
9:15 AM 48.7 °F - 43.5 °F 82% 30.34 in 10.0 mi NE 3.5 mph - N/A   Clear
9:35 AM 50.0 °F - 42.1 °F 74% 30.34 in 10.0 mi ENE 4.6 mph - N/A   Clear
9:55 AM 51.6 °F - 42.3 °F 70% 30.33 in 10.0 mi East 6.9 mph - N/A   Clear
10:15 AM 52.3 °F - 41.2 °F 66% 30.33 in 10.0 mi East 8.1 mph - N/A   Clear
10:35 AM 53.4 °F - 41.2 °F 63% 30.33 in 10.0 mi ENE 5.8 mph - N/A   Clear
10:55 AM 54.0 °F - 40.3 °F 60% 30.32 in 10.0 mi NE 5.8 mph - N/A   Clear
11:15 AM 54.7 °F - 40.1 °F 58% 30.31 in 10.0 mi ENE 5.8 mph - N/A   Clear
11:35 AM 55.2 °F - 40.3 °F 57% 30.30 in 10.0 mi NE 5.8 mph - N/A   Clear
11:55 AM 55.9 °F - 39.7 °F 55% 30.29 in 10.0 mi NE 5.8 mph - N/A   Clear
12:15 PM 56.8 °F - 39.0 °F 51% 30.28 in 10.0 mi NNE 6.9 mph - N/A   Clear
12:35 PM 57.2 °F - 38.7 °F 50% 30.27 in 10.0 mi ENE 4.6 mph - N/A   Clear
12:55 PM 57.7 °F - 38.7 °F 49% 30.26 in 10.0 mi NNE 5.8 mph - N/A   Clear
1:15 PM 57.9 °F - 37.0 °F 46% 30.26 in 10.0 mi NE 5.8 mph - N/A   Clear
1:35 PM 58.5 °F - 35.6 °F 42% 30.25 in 10.0 mi NE 6.9 mph - N/A   Clear
1:55 PM 58.5 °F - 34.2 °F 40% 30.25 in 10.0 mi North 8.1 mph - N/A   Clear
2:15 PM 58.5 °F - 33.3 °F 39% 30.25 in 10.0 mi NE 6.9 mph - N/A   Clear
2:35 PM 58.3 °F - 31.8 °F 37% 30.24 in 10.0 mi NE 5.8 mph - N/A   Clear
2:55 PM 58.1 °F - 32.0 °F 37% 30.24 in 10.0 mi NE 4.6 mph - N/A   Clear
3:15 PM 57.6 °F - 31.8 °F 38% 30.24 in 10.0 mi NNE 5.8 mph - N/A   Clear
3:35 PM 56.8 °F - 31.6 °F 38% 30.24 in 10.0 mi NE 6.9 mph - N/A   Clear
3:55 PM 55.9 °F - 31.8 °F 40% 30.24 in 10.0 mi NNE 4.6 mph - N/A   Clear
4:15 PM 54.3 °F - 32.0 °F 43% 30.24 in 10.0 mi NE 4.6 mph - N/A   Clear
4:35 PM 52.3 °F - 32.5 °F 47% 30.24 in 10.0 mi Calm Calm - N/A   Clear
4:55 PM 50.9 °F - 32.9 °F 50% 30.24 in 10.0 mi Calm Calm - N/A   Clear
5:15 PM 49.3 °F - 32.9 °F 53% 30.24 in 10.0 mi Calm Calm - N/A   Clear
5:35 PM 46.0 °F - 33.6 °F 62% 30.24 in 10.0 mi Calm Calm - N/A   Clear
5:55 PM 43.2 °F - 33.6 °F 69% 30.23 in 10.0 mi Calm Calm - N/A   Clear
6:15 PM 43.7 °F - 33.6 °F 68% 30.23 in 10.0 mi Calm Calm - N/A   Clear
6:35 PM 41.9 °F - 33.4 °F 72% 30.23 in 10.0 mi Calm Calm - N/A   Clear
6:55 PM 41.7 °F - 33.3 °F 72% 30.23 in 10.0 mi Calm Calm - N/A   Clear
7:15 PM 41.5 °F - 33.1 °F 72% 30.23 in 10.0 mi Calm Calm - N/A   Clear